Time,TemperatureF,DewpointF,PressureIn,WindDirection,WindDirectionDegrees,WindSpeedMPH,WindSpeedGustMPH,Humidity,HourlyPrecipIn,Conditions,Clouds,dailyrainin,SoftwareType,DateUTC
2013-03-24 00:00:00,30.0,-99.9,-100.00,NW,325,10.0,15.0,-999,-99.99,,,-99.99,,2013-03-24 05:00:00,
2013-03-24 00:33:00,30.0,-99.9,-100.00,NW,325,10.0,15.0,-999,-99.99,,,-99.99,,2013-03-24 05:33:00,
2013-03-24 00:43:00,30.0,-99.9,-100.00,NW,325,10.0,15.0,-999,-99.99,,,-99.99,,2013-03-24 05:43:00,
2013-03-24 00:52:00,30.0,-99.9,-100.00,NW,325,10.0,15.0,-999,-99.99,,,-99.99,,2013-03-24 05:52:00,
2013-03-24 01:00:00,31.0,-99.9,-100.00,NNW,329,4.0,11.0,-999,-99.99,,,-99.99,,2013-03-24 06:00:00,
2013-03-24 01:52:00,31.0,-99.9,-100.00,NNW,329,4.0,11.0,-999,-99.99,,,-99.99,,2013-03-24 06:52:00,
2013-03-24 02:00:00,30.0,-99.9,-100.00,WNW,296,10.0,14.0,-999,-99.99,,,-99.99,,2013-03-24 07:00:00,
2013-03-24 02:32:00,30.0,-99.9,-100.00,WNW,296,10.0,14.0,-999,-99.99,,,-99.99,,2013-03-24 07:32:00,
2013-03-24 02:42:00,30.0,-99.9,-100.00,WNW,296,10.0,14.0,-999,-99.99,,,-99.99,,2013-03-24 07:42:00,
2013-03-24 02:53:00,30.0,-99.9,-100.00,WNW,296,10.0,14.0,-999,-99.99,,,-99.99,,2013-03-24 07:53:00,
2013-03-24 03:00:00,30.0,-99.9,-100.00,NNW,339,9.0,19.0,-999,-99.99,,,-99.99,,2013-03-24 08:00:00,
2013-03-24 03:32:00,30.0,-99.9,-100.00,NNW,339,9.0,19.0,-999,-99.99,,,-99.99,,2013-03-24 08:32:00,
2013-03-24 03:42:00,30.0,-99.9,-100.00,NNW,339,9.0,19.0,-999,-99.99,,,-99.99,,2013-03-24 08:42:00,
2013-03-24 03:53:00,30.0,-99.9,-100.00,NNW,339,9.0,19.0,-999,-99.99,,,-99.99,,2013-03-24 08:53:00,
2013-03-24 04:00:00,28.0,-99.9,-100.00,WNW,297,12.0,15.0,-999,-99.99,,,-99.99,,2013-03-24 09:00:00,
2013-03-24 04:33:00,28.0,-99.9,-100.00,WNW,297,12.0,15.0,-999,-99.99,,,-99.99,,2013-03-24 09:33:00,
2013-03-24 04:43:00,28.0,-99.9,-100.00,WNW,297,12.0,15.0,-999,-99.99,,,-99.99,,2013-03-24 09:43:00,
2013-03-24 04:53:00,28.0,-99.9,-100.00,WNW,297,12.0,15.0,-999,-99.99,,,-99.99,,2013-03-24 09:53:00,
2013-03-24 05:00:00,28.0,-99.9,-100.00,NW,312,11.0,18.0,-999,-99.99,,,-99.99,,2013-03-24 10:00:00,
2013-03-24 05:53:00,28.0,-99.9,-100.00,NW,312,11.0,18.0,-999,-99.99,,,-99.99,,2013-03-24 10:53:00,
2013-03-24 06:00:00,27.0,-99.9,-100.00,WNW,300,11.0,16.0,-999,-99.99,,,-99.99,,2013-03-24 11:00:00,
2013-03-24 06:33:00,27.0,-99.9,-100.00,WNW,300,11.0,16.0,-999,-99.99,,,-99.99,,2013-03-24 11:33:00,
2013-03-24 06:43:00,27.0,-99.9,-100.00,WNW,300,11.0,16.0,-999,-99.99,,,-99.99,,2013-03-24 11:43:00,
2013-03-24 06:52:00,27.0,-99.9,-100.00,WNW,300,11.0,16.0,-999,-99.99,,,-99.99,,2013-03-24 11:52:00,
2013-03-24 07:00:00,27.0,-99.9,-100.00,WNW,295,14.0,17.0,-999,-99.99,,,-99.99,,2013-03-24 12:00:00,
2013-03-24 07:33:00,27.0,-99.9,-100.00,WNW,295,14.0,17.0,-999,-99.99,,,-99.99,,2013-03-24 12:33:00,
2013-03-24 07:42:00,27.0,-99.9,-100.00,WNW,295,14.0,17.0,-999,-99.99,,,-99.99,,2013-03-24 12:42:00,
2013-03-24 07:53:00,27.0,-99.9,-100.00,WNW,295,14.0,17.0,-999,-99.99,,,-99.99,,2013-03-24 12:53:00,
2013-03-24 08:00:00,26.0,-99.9,-100.00,NNW,348,4.0,14.0,-999,-99.99,,,-99.99,,2013-03-24 13:00:00,
2013-03-24 08:53:00,26.0,-99.9,-100.00,NNW,348,4.0,14.0,-999,-99.99,,,-99.99,,2013-03-24 13:53:00,
2013-03-24 09:00:00,28.0,-99.9,-100.00,West,264,11.0,15.0,-999,-99.99,,,-99.99,,2013-03-24 14:00:00,
2013-03-24 09:33:00,28.0,-99.9,-100.00,West,264,11.0,15.0,-999,-99.99,,,-99.99,,2013-03-24 14:33:00,
2013-03-24 09:43:00,28.0,-99.9,-100.00,West,264,11.0,15.0,-999,-99.99,,,-99.99,,2013-03-24 14:43:00,
2013-03-24 09:53:00,28.0,-99.9,-100.00,West,264,11.0,15.0,-999,-99.99,,,-99.99,,2013-03-24 14:53:00,
2013-03-24 10:00:00,28.0,-99.9,-100.00,West,280,6.0,19.0,-999,-99.99,,,-99.99,,2013-03-24 15:00:00,
2013-03-24 10:33:00,28.0,-99.9,-100.00,West,280,6.0,19.0,-999,-99.99,,,-99.99,,2013-03-24 15:33:00,
2013-03-24 10:44:00,28.0,-99.9,-100.00,West,280,6.0,19.0,-999,-99.99,,,-99.99,,2013-03-24 15:44:00,
2013-03-24 10:53:00,28.0,-99.9,-100.00,West,280,6.0,19.0,-999,-99.99,,,-99.99,,2013-03-24 15:53:00,
2013-03-24 11:00:00,29.0,-99.9,-100.00,NE,39,6.0,16.0,-999,-99.99,,,-99.99,,2013-03-24 16:00:00,
2013-03-24 11:53:00,29.0,-99.9,-100.00,NE,39,6.0,16.0,-999,-99.99,,,-99.99,,2013-03-24 16:53:00,
2013-03-24 12:00:00,29.0,-99.9,-100.00,WNW,292,8.0,16.0,-999,-99.99,,,-99.99,,2013-03-24 17:00:00,
2013-03-24 12:33:00,29.0,-99.9,-100.00,WNW,292,8.0,16.0,-999,-99.99,,,-99.99,,2013-03-24 17:33:00,
2013-03-24 12:43:00,29.0,-99.9,-100.00,WNW,292,8.0,16.0,-999,-99.99,,,-99.99,,2013-03-24 17:43:00,
2013-03-24 12:53:00,29.0,-99.9,-100.00,WNW,292,8.0,16.0,-999,-99.99,,,-99.99,,2013-03-24 17:53:00,
2013-03-24 13:00:00,29.0,-99.9,-100.00,WNW,303,13.0,18.0,-999,-99.99,,,-99.99,,2013-03-24 18:00:00,
2013-03-24 13:33:00,29.0,-99.9,-100.00,WNW,303,13.0,18.0,-999,-99.99,,,-99.99,,2013-03-24 18:33:00,
2013-03-24 13:43:00,29.0,-99.9,-100.00,WNW,303,13.0,18.0,-999,-99.99,,,-99.99,,2013-03-24 18:43:00,
2013-03-24 13:53:00,29.0,-99.9,-100.00,WNW,303,13.0,18.0,-999,-99.99,,,-99.99,,2013-03-24 18:53:00,
2013-03-24 14:00:00,31.0,-99.9,-100.00,WNW,288,4.0,21.0,-999,-99.99,,,-99.99,,2013-03-24 19:00:00,
2013-03-24 14:33:00,31.0,-99.9,-100.00,WNW,288,4.0,21.0,-999,-99.99,,,-99.99,,2013-03-24 19:33:00,
2013-03-24 14:43:00,31.0,-99.9,-100.00,WNW,288,4.0,21.0,-999,-99.99,,,-99.99,,2013-03-24 19:43:00,
2013-03-24 14:53:00,31.0,-99.9,-100.00,WNW,288,4.0,21.0,-999,-99.99,,,-99.99,,2013-03-24 19:53:00,
2013-03-24 15:00:00,31.0,-99.9,-100.00,North,6,2.0,17.0,-999,-99.99,,,-99.99,,2013-03-24 20:00:00,
2013-03-24 15:33:00,31.0,-99.9,-100.00,North,6,2.0,17.0,-999,-99.99,,,-99.99,,2013-03-24 20:33:00,
2013-03-24 15:43:00,31.0,-99.9,-100.00,North,6,2.0,17.0,-999,-99.99,,,-99.99,,2013-03-24 20:43:00,
2013-03-24 15:53:00,31.0,-99.9,-100.00,North,6,2.0,17.0,-999,-99.99,,,-99.99,,2013-03-24 20:53:00,
2013-03-24 16:00:00,31.0,-99.9,-100.00,WNW,283,15.0,23.0,-999,-99.99,,,-99.99,,2013-03-24 21:00:00,
2013-03-24 16:33:00,31.0,-99.9,-100.00,WNW,283,15.0,23.0,-999,-99.99,,,-99.99,,2013-03-24 21:33:00,
2013-03-24 16:43:00,31.0,-99.9,-100.00,WNW,283,15.0,23.0,-999,-99.99,,,-99.99,,2013-03-24 21:43:00,
2013-03-24 16:53:00,31.0,-99.9,-100.00,WNW,283,15.0,23.0,-999,-99.99,,,-99.99,,2013-03-24 21:53:00,
2013-03-24 17:00:00,31.0,-99.9,-100.00,WNW,291,11.0,14.0,-999,-99.99,,,-99.99,,2013-03-24 22:00:00,
2013-03-24 17:33:00,31.0,-99.9,-100.00,WNW,291,11.0,14.0,-999,-99.99,,,-99.99,,2013-03-24 22:33:00,
2013-03-24 17:43:00,31.0,-99.9,-100.00,WNW,291,11.0,14.0,-999,-99.99,,,-99.99,,2013-03-24 22:43:00,
2013-03-24 17:53:00,31.0,-99.9,-100.00,WNW,291,11.0,14.0,-999,-99.99,,,-99.99,,2013-03-24 22:53:00,
2013-03-24 18:00:00,30.0,-99.9,-100.00,SSE,160,1.0,15.0,-999,-99.99,,,-99.99,,2013-03-24 23:00:00,
2013-03-24 18:32:00,30.0,-99.9,-100.00,SSE,160,1.0,15.0,-999,-99.99,,,-99.99,,2013-03-24 23:32:00,
2013-03-24 18:43:00,30.0,-99.9,-100.00,SSE,160,1.0,15.0,-999,-99.99,,,-99.99,,2013-03-24 23:43:00,
2013-03-24 18:53:00,30.0,-99.9,-100.00,SSE,160,1.0,15.0,-999,-99.99,,,-99.99,,2013-03-24 23:53:00,
2013-03-24 20:00:00,29.0,-99.9,-100.00,NNW,342,0.0,14.0,-999,-99.99,,,-99.99,,2013-03-25 01:00:00,
2013-03-24 20:32:00,29.0,-99.9,-100.00,NNW,342,0.0,14.0,-999,-99.99,,,-99.99,,2013-03-25 01:32:00,
2013-03-24 20:42:00,29.0,-99.9,-100.00,NNW,342,0.0,14.0,-999,-99.99,,,-99.99,,2013-03-25 01:42:00,
2013-03-24 20:53:00,29.0,-99.9,-100.00,NNW,342,0.0,14.0,-999,-99.99,,,-99.99,,2013-03-25 01:53:00,
2013-03-24 21:00:00,29.0,-99.9,-100.00,NW,322,8.0,14.0,-999,-99.99,,,-99.99,,2013-03-25 02:00:00,
2013-03-24 21:33:00,29.0,-99.9,-100.00,NW,322,8.0,14.0,-999,-99.99,,,-99.99,,2013-03-25 02:33:00,
2013-03-24 21:43:00,29.0,-99.9,-100.00,NW,322,8.0,14.0,-999,-99.99,,,-99.99,,2013-03-25 02:43:00,
2013-03-24 21:53:00,29.0,-99.9,-100.00,NW,322,8.0,14.0,-999,-99.99,,,-99.99,,2013-03-25 02:53:00,
2013-03-24 22:00:00,29.0,-99.9,-100.00,West,279,11.0,13.0,-999,-99.99,,,-99.99,,2013-03-25 03:00:00,
2013-03-24 22:34:00,29.0,-99.9,-100.00,West,279,11.0,13.0,-999,-99.99,,,-99.99,,2013-03-25 03:34:00,
2013-03-24 22:43:00,29.0,-99.9,-100.00,West,279,11.0,13.0,-999,-99.99,,,-99.99,,2013-03-25 03:43:00,
2013-03-24 22:53:00,29.0,-99.9,-100.00,West,279,11.0,13.0,-999,-99.99,,,-99.99,,2013-03-25 03:53:00,
2013-03-24 23:00:00,29.0,-99.9,-100.00,WNW,300,5.0,7.0,-999,-99.99,,,-99.99,,2013-03-25 04:00:00,
2013-03-24 23:53:00,29.0,-99.9,-100.00,WNW,300,5.0,7.0,-999,-99.99,,,-99.99,,2013-03-25 04:53:00,